NOAA 16 DEB, 42375

Orbit data source: Space-Track

NOAA 16 DEB, 42375 is space debris in SSO originally from a launch on Thu, 21 Sep 2000 UTC launched from the Air Force Western Test Range (AFWTR). Debris objects in space refer to the collection of defunct objects orbiting the Earth. Examples of debris include non-operational satellites, rocket bodies, and fragments generated from explosions, collisions, or faulty payload assembly.

Loading next visibility...
Identifier
42375, 2000-055RT
Orbit
SSO
Country
Flag of USUS
Related business
Manufacturer
Unknown
Mission
Spacecraft
Bus & Motor
Unknown
Mass
Unknown
Launch date (UTC)
2000-09-21 (25 years ago)
Launch vehicle
Unknown
Launch site
Air Force Western Test Range (AFWTR)
Object type
Payload
Rocket body
Debris
Shape & HBR
Unknown shape, 0.1 m
Radar Cross Section
Small (<0.1 m²)

Expand to show TLE details & history
Last TLE update: 2 days ago

TLE from 2 days ago
0 NOAA 16 DEB
1 42375U 00055RT  25291.13051231  .00006013  00000-0  24836-2 0  9991
2 42375  98.6819   1.2487 0007205 137.8789 222.2946 14.27070145491713
Epoch: 2025-10-18T03:07Z
TLE epoch observation values (Epoch: 2025-10-18T03:07:56.263Z)
Latitude
-0.00006°
Longitude
-72.60166°
Altitude
808.295 km
Speed
7.447 km/s
True Right ascension
00h 04m 59s
True Declination
0° 00' 00"
Sunlit
Object was in full shadow at epoch
Visualization orbit readout
Latitude
Unknown
Longitude
Unknown
Altitude
Unknown
Speed
Unknown
Apparent Right ascension
Unknown
Apparent Declination
Unknown
Sunlit
N/A
Visualization observer readout
Local Sidereal Time
13:34:13
Azimuth
Unknown
Elevation
Unknown
Doppler factor
Unknown
Orbital elements
Apogee altitude
803.86 km
Perigee altitude
793.518 km
Semi-major axis
7,176.826 km
Eccentricity
0.00072
Inclination
98.6819°
RAAN
1.2487°
Arg. of periapsis
137.8789°
True anomaly
222.23908°
Mean anomaly
222.2946°
Eccentric anomaly
222.26683°
Mean motion
3.56981 °/min
Orbital period
100.85 mins
BSTAR
0.0024836
Loading maneuver chart data...
Computing Atmospheric mass density...

Documentation

Showing up to 5 results
|